Time,TemperatureF,DewpointF,PressureIn,WindDirection,WindDirectionDegrees,WindSpeedMPH,WindSpeedGustMPH,Humidity,HourlyPrecipIn,Conditions,Clouds,dailyrainin,SoftwareType,DateUTC
2013-02-13 00:02:00,13.0,7.0,-100.00,ESE,110,4.0,4.0,78,0.00,,,-99.99,,2013-02-13 07:02:00,
2013-02-13 00:11:00,13.0,8.0,-100.00,East,100,5.0,6.0,78,0.00,,,-99.99,,2013-02-13 07:11:00,
2013-02-13 00:22:00,13.0,8.0,-100.00,East,100,3.0,6.0,78,0.00,,,-99.99,,2013-02-13 07:22:00,
2013-02-13 00:31:00,13.0,7.0,-100.00,ESE,120,2.0,4.0,78,0.00,,,-99.99,,2013-02-13 07:31:00,
2013-02-13 00:42:00,13.0,7.0,-100.00,ESE,105,4.0,4.0,77,0.00,,,-99.99,,2013-02-13 07:42:00,
2013-02-13 00:51:00,13.0,7.0,-100.00,ESE,105,4.0,6.0,77,0.00,,,-99.99,,2013-02-13 07:51:00,
2013-02-13 01:01:00,13.0,8.0,-100.00,ESE,110,2.0,5.0,77,0.00,,,-99.99,,2013-02-13 08:01:00,
2013-02-13 01:11:00,13.0,7.0,-100.00,ESE,110,2.0,3.0,77,0.00,,,-99.99,,2013-02-13 08:11:00,
2013-02-13 01:21:00,13.0,7.0,-100.00,ESE,110,3.0,4.0,77,0.00,,,-99.99,,2013-02-13 08:21:00,
2013-02-13 01:32:00,13.0,7.0,-100.00,East,90,7.0,8.0,77,0.00,,,-99.99,,2013-02-13 08:32:00,
2013-02-13 01:43:00,13.0,7.0,-100.00,East,85,6.0,7.0,77,0.00,,,-99.99,,2013-02-13 08:43:00,
2013-02-13 01:52:00,14.0,8.0,-100.00,East,80,3.0,5.0,77,0.00,,,-99.99,,2013-02-13 08:52:00,
2013-02-13 02:01:00,13.0,8.0,-100.00,ESE,115,1.0,5.0,77,0.00,,,-99.99,,2013-02-13 09:01:00,
2013-02-13 02:11:00,13.0,7.0,-100.00,ESE,115,1.0,2.0,77,0.00,,,-99.99,,2013-02-13 09:11:00,
2013-02-13 02:21:00,13.0,7.0,-100.00,ESE,115,1.0,2.0,77,0.00,,,-99.99,,2013-02-13 09:21:00,
2013-02-13 02:31:00,13.0,8.0,-100.00,East,90,5.0,6.0,78,0.00,,,-99.99,,2013-02-13 09:31:00,
2013-02-13 02:42:00,13.0,8.0,-100.00,ESE,115,2.0,6.0,78,0.00,,,-99.99,,2013-02-13 09:42:00,
2013-02-13 02:52:00,13.0,8.0,-100.00,ESE,110,2.0,3.0,78,0.00,,,-99.99,,2013-02-13 09:52:00,
2013-02-13 03:01:00,13.0,8.0,-100.00,SE,125,3.0,4.0,78,0.00,,,-99.99,,2013-02-13 10:01:00,
2013-02-13 03:11:00,13.0,8.0,-100.00,ESE,120,2.0,4.0,78,0.00,,,-99.99,,2013-02-13 10:11:00,
2013-02-13 03:21:00,13.0,8.0,-100.00,East,85,3.0,4.0,78,0.00,,,-99.99,,2013-02-13 10:21:00,
2013-02-13 03:32:00,13.0,8.0,-100.00,East,90,5.0,6.0,79,0.00,,,-99.99,,2013-02-13 10:32:00,
2013-02-13 03:42:00,13.0,8.0,-100.00,East,80,4.0,6.0,79,0.00,,,-99.99,,2013-02-13 10:42:00,
2013-02-13 03:51:00,13.0,8.0,-100.00,East,100,3.0,5.0,80,0.00,,,-99.99,,2013-02-13 10:51:00,
2013-02-13 04:01:00,13.0,8.0,-100.00,East,100,2.0,4.0,80,0.00,,,-99.99,,2013-02-13 11:01:00,
2013-02-13 04:11:00,14.0,9.0,-100.00,East,80,4.0,6.0,80,0.00,,,-99.99,,2013-02-13 11:11:00,
2013-02-13 04:22:00,13.0,9.0,-100.00,ESE,105,2.0,4.0,80,0.00,,,-99.99,,2013-02-13 11:22:00,
2013-02-13 04:32:00,13.0,9.0,-100.00,East,100,4.0,5.0,80,0.00,,,-99.99,,2013-02-13 11:32:00,
2013-02-13 04:42:00,14.0,9.0,-100.00,East,90,4.0,6.0,80,0.00,,,-99.99,,2013-02-13 11:42:00,
2013-02-13 04:52:00,14.0,9.0,-100.00,East,100,4.0,5.0,81,0.00,,,-99.99,,2013-02-13 11:52:00,
2013-02-13 05:02:00,14.0,9.0,-100.00,East,100,3.0,4.0,81,0.00,,,-99.99,,2013-02-13 12:02:00,
2013-02-13 05:11:00,14.0,10.0,-100.00,ENE,75,4.0,6.0,81,0.00,,,-99.99,,2013-02-13 12:11:00,
2013-02-13 05:22:00,14.0,10.0,-100.00,East,95,4.0,6.0,81,0.00,,,-99.99,,2013-02-13 12:22:00,
2013-02-13 05:32:00,14.0,10.0,-100.00,East,100,4.0,4.0,81,0.00,,,-99.99,,2013-02-13 12:32:00,
2013-02-13 05:42:00,14.0,10.0,-100.00,ESE,110,3.0,4.0,81,0.00,,,-99.99,,2013-02-13 12:42:00,
2013-02-13 05:52:00,14.0,9.0,-100.00,SE,135,2.0,4.0,81,0.00,,,-99.99,,2013-02-13 12:52:00,
2013-02-13 06:02:00,14.0,10.0,-100.00,East,95,6.0,6.0,81,0.00,,,-99.99,,2013-02-13 13:02:00,
2013-02-13 06:11:00,14.0,10.0,-100.00,East,80,5.0,6.0,82,0.00,,,-99.99,,2013-02-13 13:11:00,
2013-02-13 06:21:00,14.0,10.0,-100.00,East,95,4.0,5.0,82,0.00,,,-99.99,,2013-02-13 13:21:00,
2013-02-13 06:32:00,15.0,10.0,-100.00,East,90,4.0,6.0,82,0.00,,,-99.99,,2013-02-13 13:32:00,
2013-02-13 06:42:00,15.0,10.0,-100.00,East,100,4.0,6.0,82,0.00,,,-99.99,,2013-02-13 13:42:00,
2013-02-13 06:51:00,15.0,10.0,-100.00,East,80,4.0,6.0,82,0.00,,,-99.99,,2013-02-13 13:51:00,
2013-02-13 07:01:00,15.0,10.0,-100.00,East,90,5.0,6.0,82,0.00,,,-99.99,,2013-02-13 14:01:00,
2013-02-13 07:11:00,15.0,11.0,-100.00,East,95,6.0,6.0,82,0.00,,,-99.99,,2013-02-13 14:11:00,
2013-02-13 07:21:00,15.0,10.0,-100.00,East,85,4.0,6.0,82,0.00,,,-99.99,,2013-02-13 14:21:00,
2013-02-13 07:31:00,15.0,11.0,-100.00,ESE,105,3.0,6.0,82,0.00,,,-99.99,,2013-02-13 14:31:00,
2013-02-13 07:42:00,15.0,11.0,-100.00,ESE,105,2.0,4.0,82,0.00,,,-99.99,,2013-02-13 14:42:00,
2013-02-13 07:52:00,16.0,11.0,-100.00,East,95,3.0,6.0,81,0.00,,,-99.99,,2013-02-13 14:52:00,
2013-02-13 08:01:00,16.0,11.0,-100.00,East,100,2.0,3.0,81,0.00,,,-99.99,,2013-02-13 15:01:00,
2013-02-13 08:11:00,16.0,11.0,-100.00,ESE,105,2.0,2.0,80,0.00,,,-99.99,,2013-02-13 15:11:00,
2013-02-13 08:21:00,17.0,12.0,-100.00,East,85,4.0,6.0,80,0.00,,,-99.99,,2013-02-13 15:21:00,
2013-02-13 08:32:00,17.0,12.0,-100.00,East,95,4.0,6.0,79,0.00,,,-99.99,,2013-02-13 15:32:00,
2013-02-13 08:42:00,17.0,12.0,-100.00,East,85,4.0,6.0,78,0.00,,,-99.99,,2013-02-13 15:42:00,
2013-02-13 08:51:00,18.0,12.0,-100.00,East,85,4.0,6.0,76,0.00,,,-99.99,,2013-02-13 15:51:00,
2013-02-13 09:01:00,18.0,12.0,-100.00,East,85,4.0,6.0,76,0.00,,,-99.99,,2013-02-13 16:01:00,
2013-02-13 09:11:00,18.0,12.0,-100.00,East,85,4.0,6.0,76,0.00,,,-99.99,,2013-02-13 16:11:00,
2013-02-13 09:21:00,18.0,12.0,-100.00,East,85,4.0,6.0,76,0.00,,,-99.99,,2013-02-13 16:21:00,
2013-02-13 09:31:00,19.0,11.0,-100.00,ESE,110,2.0,7.0,71,0.00,,,-99.99,,2013-02-13 16:31:00,
2013-02-13 09:42:00,20.0,12.0,-100.00,ESE,105,2.0,4.0,70,0.00,,,-99.99,,2013-02-13 16:42:00,
2013-02-13 09:52:00,23.0,14.0,-100.00,East,85,2.0,3.0,68,0.00,,,-99.99,,2013-02-13 16:52:00,
2013-02-13 10:01:00,25.0,15.0,-100.00,NE,45,1.0,2.0,65,0.00,,,-99.99,,2013-02-13 17:01:00,
2013-02-13 10:11:00,27.0,16.0,-100.00,NE,35,0.0,1.0,63,0.00,,,-99.99,,2013-02-13 17:11:00,
2013-02-13 10:21:00,29.0,16.0,-100.00,WNW,300,6.0,7.0,55,0.00,,,-99.99,,2013-02-13 17:21:00,
2013-02-13 10:32:00,28.0,14.0,-100.00,WNW,300,7.0,9.0,54,0.00,,,-99.99,,2013-02-13 17:32:00,
2013-02-13 10:42:00,28.0,13.0,-100.00,WNW,290,9.0,15.0,53,0.00,,,-99.99,,2013-02-13 17:42:00,
2013-02-13 10:52:00,28.0,14.0,-100.00,WNW,285,11.0,15.0,54,0.00,,,-99.99,,2013-02-13 17:52:00,
2013-02-13 11:01:00,29.0,14.0,-100.00,WNW,295,9.0,17.0,54,0.00,,,-99.99,,2013-02-13 18:01:00,
2013-02-13 11:11:00,27.0,13.0,-100.00,WNW,290,12.0,17.0,55,0.00,,,-99.99,,2013-02-13 18:11:00,
2013-02-13 11:23:00,27.0,13.0,-100.00,WNW,295,9.0,11.0,56,0.00,,,-99.99,,2013-02-13 18:23:00,
2013-02-13 11:32:00,27.0,13.0,-100.00,WNW,295,7.0,11.0,55,0.00,,,-99.99,,2013-02-13 18:32:00,
2013-02-13 11:42:00,27.0,13.0,-100.00,WNW,290,6.0,9.0,55,0.00,,,-99.99,,2013-02-13 18:42:00,
2013-02-13 11:52:00,27.0,13.0,-100.00,West,280,7.0,12.0,54,0.00,,,-99.99,,2013-02-13 18:52:00,
2013-02-13 12:01:00,28.0,13.0,-100.00,West,265,4.0,9.0,54,0.00,,,-99.99,,2013-02-13 19:01:00,
2013-02-13 12:11:00,29.0,14.0,-100.00,WNW,290,5.0,7.0,53,0.00,,,-99.99,,2013-02-13 19:11:00,
2013-02-13 12:21:00,30.0,14.0,-100.00,WNW,295,7.0,12.0,50,0.00,,,-99.99,,2013-02-13 19:21:00,
2013-02-13 12:31:00,30.0,14.0,-100.00,West,265,6.0,12.0,50,0.00,,,-99.99,,2013-02-13 19:31:00,
2013-02-13 12:42:00,30.0,13.0,-100.00,WNW,290,7.0,13.0,50,0.00,,,-99.99,,2013-02-13 19:42:00,
2013-02-13 12:51:00,31.0,15.0,-100.00,West,275,2.0,11.0,49,0.00,,,-99.99,,2013-02-13 19:51:00,
2013-02-13 13:02:00,33.0,16.0,-100.00,WSW,255,1.0,9.0,48,0.00,,,-99.99,,2013-02-13 20:02:00,
2013-02-13 13:11:00,33.0,14.0,-100.00,WNW,285,6.0,9.0,45,0.00,,,-99.99,,2013-02-13 20:11:00,
2013-02-13 13:21:00,32.0,13.0,-100.00,West,275,4.0,9.0,45,0.00,,,-99.99,,2013-02-13 20:21:00,
2013-02-13 13:31:00,31.0,14.0,-100.00,WNW,295,9.0,15.0,47,0.00,,,-99.99,,2013-02-13 20:31:00,
2013-02-13 13:42:00,31.0,14.0,-100.00,West,280,7.0,11.0,47,0.00,,,-99.99,,2013-02-13 20:42:00,
2013-02-13 13:52:00,31.0,14.0,-100.00,West,275,9.0,11.0,47,0.00,,,-99.99,,2013-02-13 20:52:00,
2013-02-13 14:01:00,31.0,14.0,-100.00,WNW,285,8.0,12.0,48,0.00,,,-99.99,,2013-02-13 21:01:00,
2013-02-13 14:11:00,31.0,14.0,-100.00,WNW,290,14.0,22.0,48,0.00,,,-99.99,,2013-02-13 21:11:00,
2013-02-13 14:21:00,32.0,15.0,-100.00,WNW,290,16.0,25.0,49,0.00,,,-99.99,,2013-02-13 21:21:00,
2013-02-13 14:31:00,32.0,15.0,-100.00,WNW,295,20.0,26.0,49,0.00,,,-99.99,,2013-02-13 21:31:00,
2013-02-13 14:42:00,31.0,15.0,-100.00,WNW,295,21.0,27.0,50,0.00,,,-99.99,,2013-02-13 21:42:00,
2013-02-13 14:52:00,31.0,15.0,-100.00,WNW,290,21.0,30.0,51,0.00,,,-99.99,,2013-02-13 21:52:00,
2013-02-13 15:02:00,31.0,15.0,-100.00,WNW,285,21.0,26.0,51,0.00,,,-99.99,,2013-02-13 22:02:00,
2013-02-13 15:11:00,31.0,16.0,-100.00,WNW,290,19.0,27.0,52,0.00,,,-99.99,,2013-02-13 22:11:00,
2013-02-13 15:21:00,31.0,15.0,-100.00,WNW,290,17.0,25.0,51,0.00,,,-99.99,,2013-02-13 22:21:00,
2013-02-13 15:31:00,31.0,15.0,-100.00,West,280,16.0,26.0,51,0.00,,,-99.99,,2013-02-13 22:31:00,
2013-02-13 15:42:00,31.0,15.0,-100.00,WNW,295,7.0,26.0,51,0.00,,,-99.99,,2013-02-13 22:42:00,
2013-02-13 15:52:00,31.0,15.0,-100.00,West,270,7.0,25.0,50,0.00,,,-99.99,,2013-02-13 22:52:00,
2013-02-13 16:01:00,31.0,15.0,-100.00,West,280,14.0,25.0,50,0.00,,,-99.99,,2013-02-13 23:01:00,
2013-02-13 16:11:00,31.0,15.0,-100.00,WNW,285,9.0,23.0,50,0.00,,,-99.99,,2013-02-13 23:11:00,
2013-02-13 16:21:00,31.0,15.0,-100.00,WNW,295,6.0,17.0,50,0.00,,,-99.99,,2013-02-13 23:21:00,
2013-02-13 16:32:00,31.0,15.0,-100.00,West,275,12.0,19.0,50,0.00,,,-99.99,,2013-02-13 23:32:00,
2013-02-13 16:42:00,31.0,15.0,-100.00,West,270,7.0,19.0,50,0.00,,,-99.99,,2013-02-13 23:42:00,
2013-02-13 16:52:00,31.0,15.0,-100.00,West,280,8.0,20.0,51,0.00,,,-99.99,,2013-02-13 23:52:00,
2013-02-13 17:02:00,31.0,15.0,-100.00,WNW,295,7.0,19.0,51,0.00,,,-99.99,,2013-02-14 00:02:00,
2013-02-13 17:11:00,31.0,15.0,-100.00,North,350,4.0,19.0,51,0.00,,,-99.99,,2013-02-14 00:11:00,
2013-02-13 17:21:00,31.0,15.0,-100.00,West,270,4.0,9.0,51,0.00,,,-99.99,,2013-02-14 00:21:00,
2013-02-13 17:32:00,30.0,15.0,-100.00,SE,145,1.0,16.0,52,0.00,,,-99.99,,2013-02-14 00:32:00,
2013-02-13 17:42:00,30.0,15.0,-100.00,WNW,290,15.0,17.0,52,0.00,,,-99.99,,2013-02-14 00:42:00,
2013-02-13 17:51:00,30.0,15.0,-100.00,WNW,290,14.0,19.0,54,0.00,,,-99.99,,2013-02-14 00:51:00,
2013-02-13 18:01:00,29.0,15.0,-100.00,WNW,285,13.0,19.0,54,0.00,,,-99.99,,2013-02-14 01:01:00,
2013-02-13 18:11:00,29.0,15.0,-100.00,NW,325,3.0,19.0,54,0.00,,,-99.99,,2013-02-14 01:11:00,
2013-02-13 18:21:00,29.0,15.0,-100.00,West,270,7.0,14.0,55,0.00,,,-99.99,,2013-02-14 01:21:00,
2013-02-13 18:32:00,28.0,15.0,-100.00,West,270,3.0,11.0,56,0.00,,,-99.99,,2013-02-14 01:32:00,
2013-02-13 18:41:00,28.0,14.0,-100.00,West,275,1.0,7.0,56,0.00,,,-99.99,,2013-02-14 01:41:00,
2013-02-13 18:52:00,27.0,14.0,-100.00,SW,235,1.0,2.0,57,0.00,,,-99.99,,2013-02-14 01:52:00,
2013-02-13 19:01:00,26.0,14.0,-100.00,South,175,0.0,2.0,58,0.00,,,-99.99,,2013-02-14 02:01:00,
2013-02-13 19:11:00,26.0,13.0,-100.00,South,190,0.0,2.0,59,0.00,,,-99.99,,2013-02-14 02:11:00,
2013-02-13 19:21:00,24.0,13.0,-100.00,South,190,0.0,0.0,61,0.00,,,-99.99,,2013-02-14 02:21:00,
2013-02-13 19:31:00,24.0,13.0,-100.00,South,190,0.0,0.0,61,0.00,,,-99.99,,2013-02-14 02:31:00,
2013-02-13 19:41:00,24.0,13.0,-100.00,South,190,0.0,0.0,61,0.00,,,-99.99,,2013-02-14 02:41:00,
2013-02-13 19:51:00,24.0,13.0,-100.00,South,190,0.0,0.0,61,0.00,,,-99.99,,2013-02-14 02:51:00,
2013-02-13 20:02:00,21.0,11.0,-100.00,ESE,120,3.0,6.0,65,0.00,,,-99.99,,2013-02-14 03:02:00,
2013-02-13 20:11:00,21.0,12.0,-100.00,SE,140,4.0,6.0,66,0.00,,,-99.99,,2013-02-14 03:11:00,
2013-02-13 20:22:00,21.0,12.0,-100.00,SE,130,2.0,4.0,68,0.00,,,-99.99,,2013-02-14 03:22:00,
2013-02-13 20:31:00,21.0,12.0,-100.00,SE,135,4.0,6.0,69,0.00,,,-99.99,,2013-02-14 03:31:00,
2013-02-13 20:42:00,20.0,11.0,-100.00,SSE,150,2.0,6.0,70,0.00,,,-99.99,,2013-02-14 03:42:00,
2013-02-13 20:51:00,19.0,11.0,-100.00,SSE,150,1.0,4.0,71,0.00,,,-99.99,,2013-02-14 03:51:00,
2013-02-13 21:01:00,18.0,11.0,-100.00,ESE,115,2.0,4.0,71,0.00,,,-99.99,,2013-02-14 04:01:00,
2013-02-13 21:21:00,17.0,10.0,-100.00,ESE,110,4.0,6.0,74,0.00,,,-99.99,,2013-02-14 04:21:00,
2013-02-13 21:31:00,17.0,11.0,-100.00,East,90,4.0,7.0,74,0.00,,,-99.99,,2013-02-14 04:31:00,
2013-02-13 21:42:00,18.0,12.0,-100.00,East,95,6.0,7.0,76,0.00,,,-99.99,,2013-02-14 04:42:00,
2013-02-13 21:52:00,17.0,11.0,-100.00,East,100,6.0,7.0,76,0.00,,,-99.99,,2013-02-14 04:52:00,
2013-02-13 22:02:00,17.0,11.0,-100.00,SE,125,3.0,9.0,77,0.00,,,-99.99,,2013-02-14 05:02:00,
2013-02-13 22:11:00,16.0,11.0,-100.00,ESE,110,3.0,6.0,78,0.00,,,-99.99,,2013-02-14 05:11:00,
2013-02-13 22:21:00,15.0,10.0,-100.00,SE,135,3.0,6.0,78,0.00,,,-99.99,,2013-02-14 05:21:00,
2013-02-13 22:32:00,16.0,10.0,-100.00,East,100,2.0,4.0,79,0.00,,,-99.99,,2013-02-14 05:32:00,
2013-02-13 22:42:00,15.0,10.0,-100.00,ESE,110,6.0,6.0,80,0.00,,,-99.99,,2013-02-14 05:42:00,
2013-02-13 22:52:00,15.0,10.0,-100.00,ESE,105,5.0,6.0,80,0.00,,,-99.99,,2013-02-14 05:52:00,
2013-02-13 23:02:00,15.0,10.0,-100.00,East,100,6.0,6.0,81,0.00,,,-99.99,,2013-02-14 06:02:00,
2013-02-13 23:11:00,15.0,10.0,-100.00,East,90,6.0,7.0,82,0.00,,,-99.99,,2013-02-14 06:11:00,
2013-02-13 23:21:00,15.0,10.0,-100.00,ESE,115,3.0,6.0,82,0.00,,,-99.99,,2013-02-14 06:21:00,
2013-02-13 23:32:00,15.0,11.0,-100.00,East,100,3.0,5.0,83,0.00,,,-99.99,,2013-02-14 06:32:00,
2013-02-13 23:42:00,15.0,11.0,-100.00,ESE,115,2.0,6.0,83,0.00,,,-99.99,,2013-02-14 06:42:00,
2013-02-13 23:51:00,15.0,11.0,-100.00,East,85,4.0,4.0,84,0.00,,,-99.99,,2013-02-14 06:51:00,